Home   Weather   Trenton   Past weeks

Flag for USA Past Weather in Trenton, New Jersey, USA — Yesterday and Last 2 Weeks

Now
82 °F

Passing clouds.


Feels Like: 87 °F
Forecast: 71 / 85 °F
Wind: 10 mph from Southwest

Location: Mercer County Airport

Current Time: Jun 23, 2017 at 11:28:56 pm

Latest Report: Jun 23, 2017 at 10:53 pm


Visibility: 10 mi

Pressure: 29.63 "Hg

Humidity: 74%

Dew Point: 73 °F

Location of TrentonLocation

Past Weather in Trenton — Graph

°F

Trenton Temperature Yesterday

Maximum temperature yesterday: 88 °F (at 3:53 pm)
Minimum temperature yesterday: 62 °F (at 3:34 am)
Average temperature yesterday: 74 °F

High & Low Weather Summary for the Past Weeks

 TemperatureHumidityPressure
High94 °F (Jun 13, 3:53 pm)100% (Jun 17, 4:53 am)30.08 "Hg (Jun 17, 4:53 am)
Low50 °F (Jun 9, 5:53 am)32% (Jun 9, 5:53 pm)29.62 "Hg (Jun 23, 6:53 pm)
Average75 °F71%29.89 "Hg
* Reported Jun 8 9:53 pm — Jun 23 9:53 pm, Trenton. Weather by CustomWeather, © 2017

Note: Actual official high and low records may vary slightly from our data, if they occured in-between our weather recording intervals... More about our weather records

Advertising

Trenton Weather History for the Previous 24 Hours

Scroll right to see more
 ConditionsComfort  
Time TempWeatherWind HumidityBarometerVisibility
9:53 pm
Fri, Jun 23
82 °FPassing clouds.13 mph74%29.65 "Hg10 mi
9:04 pm82 °FPassing clouds.15 mph74%29.66 "Hg10 mi
7:53 pm82 °FLight rain. Mostly cloudy.20 mph74%29.63 "Hg10 mi
7:15 pm84 °FPartly sunny.13 mph70%29.65 "Hg10 mi
7:05 pm84 °FThundershowers. Scattered clouds.12 mph70%29.64 "Hg10 mi
6:53 pm84 °FScattered clouds.13 mph70%29.62 "Hg10 mi
6:14 pm84 °FPartly sunny.10 mph70%29.64 "Hg10 mi
5:53 pm84 °FPartly sunny.14 mph70%29.62 "Hg10 mi
5:24 pm86 °FMostly cloudy.12 mph63%29.66 "Hg10 mi
5:07 pm87 °FPartly sunny.16 mph63%29.67 "Hg10 mi
4:12 pm85 °FBroken clouds.13 mph68%29.68 "Hg10 mi
3:53 pm84 °FPartly sunny.13 mph70%29.66 "Hg10 mi
2:53 pm82 °FCloudy.9 mph72%29.68 "Hg10 mi
2:00 pm80 °FMore clouds than sun.13 mph76%29.72 "Hg10 mi
12:53 pm76 °FMostly cloudy.16 mph85%29.72 "Hg10 mi
11:53 am77 °FMostly cloudy.15 mph82%29.75 "Hg10 mi
11:25 am78 °FCloudy.14 mph84%29.78 "Hg10 mi
10:53 am77 °FLight rain. Cloudy.8 mph88%29.77 "Hg10 mi
10:36 am76 °FLight rain. Mostly cloudy.10 mph91%29.80 "Hg8 mi
10:20 am77 °FLight rain. Cloudy.14 mph88%29.80 "Hg7 mi
9:53 am77 °FPartly sunny.12 mph90%29.79 "Hg7 mi
9:19 am77 °FLight rain. Fog.8 mph90%29.82 "Hg6 mi
7:53 am76 °FFog.5 mph91%29.80 "Hg6 mi
6:53 am75 °FFog.3 mph94%29.81 "Hg6 mi
5:53 am75 °FFog.5 mph90%29.81 "Hg6 mi
4:53 am74 °FPassing clouds.5 mph94%29.82 "Hg7 mi
3:53 am75 °FOvercast.5 mph90%29.82 "Hg8 mi
2:53 am75 °FClear.3 mph88%29.83 "Hg9 mi
1:53 am77 °FClear.3 mph82%29.86 "Hg10 mi
12:53 am78 °FPassing clouds.5 mph79%29.88 "Hg10 mi
11:53 pm
Thu, Jun 22
78 °FClear.5 mph76%29.89 "Hg10 mi
Weather by CustomWeather, © 2017

See weather overviewHow to use our weather pages